Location: Boiro
(42.6475°N, 8.8834°W)
Time: 09:29:33
(UTC+01:00)

Vanguard 2 - Pass Details

Date: 05 December 2021
Orbit: 553 x 2936 km, 32.9° (Epoch: 19 January)

Event Time Altitude Azimuth Distance (km) Brightness Sun altitude
Rises 17:22:01 0° 258° (WSW) 3,237 12.1 5.3°
Reaches altitude 10° 17:24:16 10° 249° (WSW) 2,512 12.1 5.0°
Maximum altitude 17:29:39 34° 185° (S) 1,790 10.0 4.2°
Drops below altitude 10° 17:37:56 10° 125° (SE) 3,909 10.9 2.9°
Sets 17:42:23 0° 118° (ESE) 5,330 11.5 2.2°
